{"data":{"norad_id":61725,"epoch":"2026-05-25T04:00:32.168736Z","epoch_age_seconds":63843,"freshness":"FRESH","line1":"1 61725U 24196U   26145.16703899  .00000615  00000+0  32889-4 0  9999","line2":"2 61725  53.1608 106.2481 0001291  85.8748 274.2400 15.30196198 88863","mean_motion":15.30196198,"eccentricity":0.0001291,"inclination_deg":53.1608,"raan_deg":106.2481,"arg_perigee_deg":85.8748,"mean_anomaly_deg":274.24,"bstar":3.2889e-5,"rev_number":8886,"period_min":94.105579525169,"perigee_km":474.34165231179,"apogee_km":476.11119074724,"semimajor_km":6853.3634215295,"source":"CELESTRAK","updated_at":"2026-05-25T13:38:19.447990Z"}}